Terminal Aerodrome Forecast
Issued by NWS State College, PA

Home | Current Version | Previous Version | Text Only | Print | Product List | Glossary On
Versions: 1 2 3 4 5 6 7 8 9 10 11 12 13 14 15 16 17 18 19 20 21 22 23 24 25 26 27 28 29 30 31 32 33 34 35 36 37 38 39 40 41 42 43 44 45 46 47 48 49 50
000
FTUS41 KCTP 261812 AAA
TAFMDT
TAF AMD
KMDT 261812Z 2618/2718 13006KT 5SM HZ OVC021
      TEMPO 2620/2622 6SM SHRA OVC030
     FM262200 32008G15KT 3SM -SHRA VCTS OVC025CB
     FM270100 32008KT 3SM BR OVC030
     FM271200 35003KT 4SM BR OVC050
     FM271300 34006KT P6SM OVC050=

USA.gov is the U.S. government's official web portal to all federal, state and local government web resources and services.